CW9825 Weather Reports


Display with metric or nautical units.
time (UTC)temp
F
wind
direction
speed
MPH
gust
MPH
rain 1hr
in
rain 24hr
in
rain mn
in
humidity
%
barometer
mb
20260505200551 43 292 4.0 24.0 0.00 0.00 0.00 52 1013.1
20260505200050 42 312 11.0 24.0 0.00 0.00 0.00 53 1013.1
20260505195550 42 337 8.0 17.0 0.00 0.00 0.00 53 1013.1
20260505195049 42 323 8.0 16.0 0.00 0.00 0.00 54 1013.1
20260505194550 41 320 7.0 17.0 0.00 0.00 0.00 53 1013.2
20260505194049 41 315 11.0 17.0 0.00 0.00 0.00 53 1013.1
20260505193548 41 299 7.0 15.0 0.00 0.00 0.00 53 1013.1
20260505193052 41 344 6.0 16.0 0.00 0.00 0.00 53 1013.0
20260505192548 41 265 5.0 21.0 0.00 0.00 0.00 53 1013.1
20260505192048 41 298 9.0 21.0 0.00 0.00 0.00 54 1013.0
20260505191556 41 343 9.0 17.0 0.00 0.00 0.00 55 1013.0
20260505191048 41 316 10.0 17.0 0.00 0.00 0.00 55 1013.1
20260505190550 40 319 5.0 16.0 0.00 0.00 0.00 55 1013.1
20260505190047 41 360 8.0 17.0 0.00 0.00 0.00 56 1013.1
20260505185547 41 271 6.0 17.0 0.00 0.00 0.00 54 1013.1
20260505185047 41 344 7.0 17.0 0.00 0.00 0.00 54 1013.1
20260505184547 41 351 8.0 16.0 0.00 0.00 0.00 54 1013.1
20260505184047 41 317 8.0 18.0 0.00 0.00 0.00 54 1013.1
20260505183548 40 314 10.0 18.0 0.00 0.00 0.00 53 1013.0
20260505183047 41 343 7.0 16.0 0.00 0.00 0.00 53 1013.0
20260505182545 41 342 7.0 17.0 0.00 0.00 0.00 54 1013.0
20260505182049 41 273 7.0 19.0 0.00 0.00 0.00 54 1013.0
20260505181545 40 267 9.0 21.0 0.00 0.00 0.00 54 1012.9
20260505181045 40 292 10.0 21.0 0.00 0.00 0.00 54 1012.9
20260505180544 40 307 9.0 20.0 0.00 0.00 0.00 55 1012.9
20260505180052 40 355 10.0 20.0 0.00 0.00 0.00 54 1012.8
20260505175544 40 315 12.0 21.0 0.00 0.00 0.00 54 1012.8
20260505175047 40 321 10.0 21.0 0.00 0.00 0.00 54 1012.8
20260505174605 41 296 9.0 20.0 0.00 0.00 0.00 54 1012.8
20260505174044 41 281 12.0 23.0 0.00 0.00 0.00 54 1012.7
20260505173543 41 298 12.0 23.0 0.00 0.00 0.00 53 1012.5
20260505173044 41 177 11.0 21.0 0.00 0.00 0.00 53 1012.5
20260505172541 41 301 8.0 21.0 0.00 0.00 0.00 53 1012.4
20260505172042 40 9 10.0 21.0 0.00 0.00 0.00 54 1012.4
20260505171541 41 223 8.0 22.0 0.00 0.00 0.00 54 1012.2
20260505171041 41 17 6.0 22.0 0.00 0.00 0.00 53 1012.4
20260505170539 42 313 9.0 21.0 0.00 0.00 0.00 54 1012.3
20260505170048 41 337 11.0 22.0 0.00 0.00 0.00 55 1012.2
20260505165537 41 292 8.0 22.0 0.00 0.00 0.00 55 1012.2
20260505165037 41 319 11.0 17.0 0.00 0.00 0.00 56 1012.3
20260505164539 40 333 7.0 19.0 0.00 0.00 0.00 56 1012.3
20260505164039 40 291 13.0 19.0 0.00 0.00 0.00 56 1012.5
20260505163535 40 312 8.0 19.0 0.00 0.00 0.00 57 1012.4
20260505163039 41 321 10.0 19.0 0.00 0.00 0.00 57 1012.4
20260505162534 40 330 8.0 18.0 0.00 0.00 0.00 57 1012.3
20260505162034 40 331 8.0 20.0 0.00 0.00 0.00 56 1012.4
20260505161533 40 321 8.0 22.0 0.00 0.00 0.00 57 1012.3
20260505161035 40 261 10.0 22.0 0.00 0.00 0.00 57 1012.3
20260505160533 40 300 10.0 20.0 0.00 0.00 0.00 56 1012.2
20260505153034 40 284 9.0 19.0 0.00 0.00 0.00 60 1011.9
20260505152529 40 342 10.0 19.0 0.00 0.00 0.00 60 1011.8
20260505152026 40 313 8.0 20.0 0.00 0.00 0.00 60 1011.6
20260505151529 40 11 8.0 16.0 0.00 0.00 0.00 60 1011.5
20260505151025 40 319 10.0 16.0 0.00 0.00 0.00 60 1011.4
20260505150524 40 313 7.0 16.0 0.00 0.00 0.00 61 1011.4
20260505140511 37 336 6.0 13.0 0.00 0.00 0.00 66 1011.1
20260505124554 34 21 4.0 11.0 0.00 0.00 0.00 69 1010.2
20260505124054 35 12 3.0 10.0 0.00 0.00 0.00 70 1010.1
20260505123553 35 23 4.0 10.0 0.00 0.00 0.00 69 1010.0
20260505123109 35 13 4.0 8.0 0.00 0.00 0.00 70 1010.0
20260505122551 34 11 4.0 10.0 0.00 0.00 0.00 71 1009.9
20260505122049 33 9 4.0 10.0 0.00 0.00 0.00 72 1009.8
20260505121548 33 360 3.0 9.0 0.00 0.00 0.00 74 1009.7
20260505121047 33 5 3.0 8.0 0.00 0.00 0.00 75 1009.7
20260505120547 33 331 1.0 6.0 0.00 0.00 0.00 76 1009.6
20260505120047 33 331 1.0 5.0 0.00 0.00 0.00 77 1009.6
20260505115545 33 331 0.0 3.0 0.00 0.00 0.00 77 1009.5
20260505115045 33 331 2.0 3.0 0.00 0.00 0.00 77 1009.4
20260505114606 33 331 0.0 3.0 0.00 0.00 0.00 78 1009.4
20260505114045 33 331 0.0 4.0 0.00 0.00 0.00 79 1009.4
20260505113546 33 331 0.0 4.0 0.00 0.00 0.00 79 1009.5
20260505113043 33 331 1.0 5.0 0.00 0.00 0.00 80 1009.4
20260505112542 33 331 1.0 5.0 0.00 0.00 0.00 81 1009.4
20260505112043 33 331 2.0 5.0 0.00 0.00 0.00 81 1009.4
20260505111555 33 331 2.0 5.0 0.00 0.00 0.00 81 1009.4
20260505111043 33 332 2.0 4.0 0.00 0.00 0.00 82 1009.4
20260505110543 33 332 0.0 3.0 0.00 0.00 0.00 82 1009.3
20260505102037 33 332 0.0 0.0 0.00 0.00 0.00 82 1009.4
20260505101537 33 332 0.0 0.0 0.00 0.00 0.00 82 1009.3
20260505101038 33 332 0.0 0.0 0.00 0.00 0.00 82 1009.3
20260505100537 33 332 0.0 0.0 0.00 0.00 0.00 82 1009.3
20260505100037 33 332 0.0 0.0 0.00 0.00 0.00 82 1009.4
20260505095536 33 332 0.0 0.0 0.00 0.00 0.00 82 1009.3
20260505095038 33 332 0.0 0.0 0.00 0.00 0.00 82 1009.3
20260505094539 33 332 0.0 0.0 0.00 0.00 0.00 82 1009.4
20260505094036 33 332 0.0 0.0 0.00 0.00 0.00 82 1009.3
20260505093534 33 332 0.0 0.0 0.00 0.00 0.00 82 1009.2
20260505093036 33 332 0.0 0.0 0.00 0.00 0.00 82 1009.3
20260505092534 33 332 0.0 0.0 0.00 0.00 0.00 82 1009.1
20260505092034 33 332 0.0 3.0 0.00 0.00 0.00 81 1009.1
20260505091535 33 332 1.0 3.0 0.00 0.00 0.00 81 1009.2
20260505091031 33 332 0.0 3.0 0.00 0.00 0.00 81 1009.0
20260505090533 33 332 1.0 3.0 0.00 0.00 0.00 80 1009.0
20260505090036 33 332 1.0 4.0 0.00 0.00 0.00 80 1008.9
20260505085530 33 332 1.0 4.0 0.00 0.00 0.00 80 1008.9
20260505085030 33 332 1.0 4.0 0.00 0.00 0.00 80 1008.8
20260505084531 33 332 1.0 4.0 0.00 0.00 0.00 80 1008.7
20260505084029 33 332 0.0 3.0 0.00 0.00 0.00 80 1008.9
20260505083528 33 332 1.0 3.0 0.00 0.00 0.00 80 1008.9
20260505083040 33 332 0.0 2.0 0.00 0.00 0.00 80 1008.7
20260505082528 33 332 0.0 2.0 0.00 0.00 0.00 80 1008.7
20260505082028 32 332 0.0 3.0 0.00 0.00 0.00 80 1008.7
20260505081533 32 332 1.0 5.0 0.00 0.00 0.00 80 1008.9
20260505081028 32 332 2.0 5.0 0.00 0.00 0.00 80 1008.8
20260505080527 32 336 2.0 4.0 0.00 0.00 0.00 79 1008.7
20260505080038 32 336 2.0 4.0 0.00 0.00 0.00 79 1008.7
20260505075526 32 336 1.0 3.0 0.00 0.00 0.00 78 1008.8
20260505075026 32 336 1.0 3.0 0.00 0.00 0.00 78 1008.8
20260505074526 32 336 1.0 4.0 0.00 0.00 0.00 77 1008.8
20260505074026 32 338 2.0 4.0 0.00 0.00 0.00 76 1008.8
20260505073523 32 338 1.0 4.0 0.00 0.00 0.00 74 1008.7
20260505073023 33 338 1.0 3.0 0.00 0.00 0.00 73 1008.7
20260505072522 33 338 0.0 2.0 0.00 0.00 0.00 73 1008.7
20260505072021 33 338 0.0 3.0 0.00 0.00 0.00 72 1008.6
20260505071521 33 338 1.0 3.0 0.00 0.00 0.00 72 1008.7
20260505071020 33 338 1.0 3.0 0.00 0.00 0.00 71 1008.6
20260505070521 33 338 1.0 3.0 0.00 0.00 0.00 71 1008.6
20260505070019 33 338 1.0 3.0 0.00 0.00 0.00 70 1008.6
20260505065520 34 338 2.0 5.0 0.00 0.00 0.00 70 1008.6
20260505065017 34 338 2.0 5.0 0.00 0.00 0.00 69 1008.6
20260505064517 34 338 2.0 4.0 0.00 0.00 0.00 69 1008.6
20260505064018 34 338 2.0 5.0 0.00 0.00 0.00 68 1008.5
20260505063516 34 338 2.0 5.0 0.00 0.00 0.00 68 1008.5
20260505063015 34 339 2.0 5.0 0.00 0.00 0.00 69 1008.6
20260505062515 34 339 2.0 5.0 0.00 0.00 0.00 69 1008.6
20260505062014 34 340 2.0 6.0 0.00 0.00 0.00 70 1008.5
20260505061527 35 340 1.0 6.0 0.00 0.00 0.00 70 1008.5
20260505061014 35 341 2.0 8.0 0.00 0.00 0.00 70 1008.4
20260505060513 35 342 3.0 8.0 0.00 0.00 0.00 71 1008.6
20260505060013 35 342 1.0 6.0 0.00 0.00 0.00 71 1008.5
20260505055512 35 346 1.0 5.0 0.00 0.00 0.00 71 1008.5
20260505055011 35 349 2.0 6.0 0.00 0.00 0.00 71 1008.4
20260505054510 35 350 3.0 8.0 0.00 0.00 0.00 70 1008.3
20260505054012 36 350 3.0 8.0 0.00 0.00 0.00 70 1008.3
20260505053512 36 350 4.0 11.0 0.00 0.00 0.00 70 1008.3
20260505053007 36 345 3.0 11.0 0.00 0.00 0.00 71 1008.4
20260505052508 36 338 5.0 10.0 0.00 0.00 0.00 71 1008.3
20260505052005 36 360 6.0 10.0 0.00 0.00 0.00 70 1008.3
20260505051503 37 348 6.0 11.0 0.00 0.00 0.00 71 1008.2
20260505051003 37 355 4.0 11.0 0.00 0.00 0.00 71 1008.2
20260505050504 37 336 3.0 11.0 0.00 0.00 0.00 72 1008.2
20260505041613 38 34 6.0 16.0 0.00 0.00 0.00 75 1007.9
20260505041054 38 337 7.0 16.0 0.00 0.00 0.00 75 1007.8
20260505040553 39 10 9.0 16.0 0.00 0.00 0.00 73 1007.8
20260505040052 39 33 6.0 15.0 0.00 0.00 0.00 72 1007.7
20260505035552 40 329 9.0 15.0 0.00 0.00 0.00 71 1007.6
20260505035052 40 323 6.0 10.0 0.00 0.00 0.00 71 1007.6
20260505034549 40 309 3.0 11.0 0.00 0.00 0.00 70 1007.6
20260505034052 40 340 6.0 12.0 0.00 0.00 0.00 70 1007.6
20260505033547 40 341 7.0 15.0 0.00 0.00 0.00 70 1007.5
20260505033046 40 323 8.0 15.0 0.00 0.00 0.00 69 1007.4
20260505032550 40 302 8.0 13.0 0.00 0.00 0.00 69 1007.4
20260505032045 40 330 7.0 13.0 0.00 0.00 0.00 68 1007.3
20260505031549 40 343 5.0 15.0 0.00 0.00 0.00 68 1007.2
20260505031048 41 323 6.0 15.0 0.00 0.00 0.00 67 1007.3
20260505030548 41 335 5.0 13.0 0.00 0.00 0.00 67 1007.2
20260505030044 41 323 7.0 13.0 0.00 0.00 0.00 67 1007.1
20260505025543 41 348 7.0 16.0 0.00 0.00 0.00 66 1007.2
20260505025041 41 338 8.0 16.0 0.00 0.00 0.00 66 1007.1
20260505024545 41 317 6.0 17.0 0.00 0.00 0.00 66 1007.0
20260505024039 41 339 10.0 17.0 0.00 0.00 0.00 66 1006.9
20260505023538 41 343 3.0 18.0 0.00 0.00 0.00 66 1006.9
20260505023044 41 360 8.0 18.0 0.00 0.00 0.00 66 1006.8
20260505022536 42 360 9.0 16.0 0.00 0.00 0.00 65 1006.7
20260505022034 42 334 9.0 16.0 0.00 0.00 0.00 65 1006.4
20260505021539 42 302 7.0 16.0 0.00 0.00 0.00 66 1006.4
20260505021032 42 331 7.0 12.0 0.00 0.00 0.00 65 1006.2
20260505020531 42 355 5.0 17.0 0.00 0.00 0.00 65 1006.1
20260505020032 42 304 11.0 17.0 0.00 0.00 0.00 64 1006.1
20260505015530 43 321 9.0 15.0 0.00 0.00 0.00 64 1006.0
20260505015033 43 343 8.0 15.0 0.00 0.00 0.00 64 1006.0
20260505014536 43 349 5.0 12.0 0.00 0.00 0.00 63 1005.9
20260505014026 43 337 6.0 13.0 0.00 0.00 0.00 62 1005.8
20260505013529 44 347 7.0 14.0 0.00 0.00 0.00 61 1005.7
20260505013029 44 19 5.0 16.0 0.00 0.00 0.00 60 1005.6
20260505012525 44 327 10.0 16.0 0.00 0.00 0.00 59 1005.5
20260505012025 44 319 7.0 15.0 0.00 0.00 0.00 59 1005.4
20260505011525 44 35 9.0 16.0 0.00 0.00 0.00 58 1005.4
20260505011023 44 332 10.0 17.0 0.00 0.00 0.00 57 1005.4
20260505010523 45 355 10.0 17.0 0.00 0.00 0.00 57 1005.4
20260505010023 45 336 5.0 17.0 0.00 0.00 0.00 57 1005.2
20260505005523 45 337 7.0 17.0 0.00 0.00 0.00 58 1005.2
20260505005024 45 340 9.0 17.0 0.00 0.00 0.00 57 1005.1
20260505004523 45 355 10.0 17.0 0.00 0.00 0.00 56 1005.1
20260505004021 46 348 7.0 21.0 0.00 0.00 0.00 55 1005.1
20260505003519 46 355 8.0 21.0 0.00 0.00 0.00 53 1005.0
20260505003019 46 337 11.0 20.0 0.00 0.00 0.00 51 1005.0
20260505002519 46 338 12.0 20.0 0.00 0.00 0.00 48 1004.9
20260505002018 46 259 10.0 20.0 0.00 0.00 0.00 47 1004.8
20260505001518 47 355 10.0 25.0 0.00 0.00 0.00 48 1004.7
20260505001017 47 326 16.0 25.0 0.00 0.00 0.00 47 1004.8
20260505000517 47 332 11.0 21.0 0.00 0.00 0.00 47 1004.7
20260505000028 47 309 11.0 24.0 0.00 0.00 0.00 47 1004.7
20260504235517 47 297 14.0 24.0 0.00 0.00 0.00 46 1004.6
20260504235017 47 5 8.0 19.0 0.00 0.00 0.00 45 1004.6
20260504234516 47 323 11.0 21.0 0.00 0.00 0.00 44 1004.6
20260504234017 47 329 11.0 24.0 0.00 0.00 0.00 44 1004.4
20260504233515 47 333 9.0 24.0 0.00 0.00 0.00 45 1004.5
20260504233020 47 346 15.0 24.0 0.00 0.00 0.00 44 1004.4
20260504232515 48 323 12.0 23.0 0.00 0.00 0.00 44 1004.5
20260504232016 48 302 8.0 21.0 0.00 0.00 0.00 44 1004.4
20260504231613 48 306 11.0 22.0 0.00 0.00 0.00 44 1004.3
20260504231014 48 324 11.0 27.0 0.00 0.00 0.00 44 1004.3
20260504230513 48 329 15.0 27.0 0.00 0.00 0.00 44 1004.1
20260504230016 48 310 13.0 27.0 0.00 0.00 0.00 43 1004.2
20260504225512 48 279 14.0 25.0 0.00 0.00 0.00 44 1004.2
20260504225011 48 261 12.0 25.0 0.00 0.00 0.00 44 1004.2
20260504224514 48 275 10.0 27.0 0.00 0.00 0.00 45 1004.1
20260504224014 48 323 11.0 27.0 0.00 0.00 0.00 45 1004.0
20260504223512 48 309 14.0 25.0 0.00 0.00 0.00 45 1004.0
20260504223009 48 338 15.0 31.0 0.00 0.00 0.00 45 1003.9
20260504222510 48 315 15.0 31.0 0.00 0.00 0.00 46 1003.9
20260504222008 48 292 5.0 26.0 0.00 0.00 0.00 47 1003.8
20260504221508 49 344 12.0 24.0 0.00 0.00 0.00 46 1003.8
20260504221008 48 270 11.0 23.0 0.00 0.00 0.00 47 1003.7
20260504220508 49 230 11.0 25.0 0.00 0.00 0.00 46 1003.7
20260504220015 48 265 15.0 25.0 0.00 0.00 0.00 47 1003.4
20260504215507 48 350 13.0 25.0 0.00 0.00 0.00 48 1003.6
20260504215007 48 329 12.0 26.0 0.00 0.00 0.00 47 1003.6
20260504214509 48 325 13.0 26.0 0.00 0.00 0.00 47 1003.5
20260504214010 48 328 13.0 24.0 0.00 0.00 0.00 48 1003.3
20260504213506 49 12 11.0 22.0 0.00 0.00 0.00 51 1003.4
20260504213009 48 319 11.0 29.0 0.00 0.00 0.00 50 1003.4
20260504212508 48 338 6.0 21.0 0.00 0.00 0.00 52 1003.4
20260504212004 48 299 10.0 23.0 0.00 0.00 0.00 53 1003.4
20260504211504 48 321 13.0 23.0 0.00 0.00 0.00 53 1003.4
20260504211004 48 339 12.0 21.0 0.00 0.00 0.00 52 1003.5
20260504210503 48 317 7.0 31.0 0.00 0.00 0.00 52 1003.3
20260504210004 48 306 15.0 31.0 0.00 0.00 0.00 51 1003.2
20260504205503 48 300 10.0 22.0 0.00 0.00 0.00 52 1003.3
20260504205005 48 288 14.0 23.0 0.00 0.00 0.00 52 1003.3
20260504204502 48 344 9.0 25.0 0.00 0.00 0.00 52 1003.3
20260504204002 47 279 11.0 25.0 0.00 0.00 0.00 51 1003.3
20260504203503 48 340 10.0 22.0 0.00 0.00 0.00 50 1003.3
20260504203005 48 355 10.0 21.0 0.00 0.00 0.00 49 1003.3
20260504202504 49 304 8.0 20.0 0.00 0.00 0.00 49 1003.3
20260504202002 48 355 7.0 19.0 0.00 0.00 0.00 49 1003.3
20260504201501 48 265 9.0 22.0 0.00 0.00 0.00 48 1003.2